Franklin, NC

4:21 PM EDT on August 21, 2017 (GMT -0400)
Franklin

Weather History for K1A5 - April, 2014

Change the Weather History Date:

Thursday, April 24, 2014

  Actual Average (KTOC) Record (KTOC)
Temperature  
Mean Temperature 52 °F -  
Max Temperature 72 °F 74 °F 79 °F (2016)
Min Temperature 32 °F 50 °F 42 °F (2015)
Degree Days  
Heating Degree Days 13    
Growing Degree Days 2 (Base 50)    
Moisture  
Dew Point 33 °F    
Average Humidity 56    
Maximum Humidity 100    
Minimum Humidity 19    
Precipitation  
Precipitation 0.00 in - - ()
Sea Level Pressure  
Sea Level Pressure 30.04 in    
Wind  
Wind Speed 2 mph (SSE)    
Max Wind Speed 12 mph    
Max Gust Speed 20 mph    
Visibility 10 miles    
Events      
Averages and records for this station are not official NWS values.
T = Trace of Precipitation, MM = Missing Value Source: NWS Daily Summary

Daily Weather History Graph

Daily Weather History Graph

Search for Another Location

Airport or City:

Trip Planner

Search our weather history database for the weather conditions in past years. The results will help you decide how hot, cold, wet, or windy it might be!

Date:

Astronomy

Apr. 24, 2014 Rise Set
Actual Time 6:50 AM EDT 8:13 PM EDT
Civil Twilight 6:23 AM EDT 8:40 PM EDT
Nautical Twilight 5:51 AM EDT 9:12 PM EDT
Astronomical Twilight 5:18 AM EDT 9:45 PM EDT
Moon 3:49 AM EDT (4/24) 3:38 PM EDT (4/24)
Length of Visible Light 14h 16m
Length of Day
13h 23m
Waning Crescent, 24% of the Moon is Illuminated
Apr 24
Waning Crescent
Apr 29
New
May 6
First Quarter
May 14
Full
May 21
Last Quarter

Hourly Weather History & Observations

Time (EDT) Temp. Dew Point Humidity Pressure Visibility Wind Dir Wind Speed Gust Speed Precip Events Conditions
12:15 AM 41.9 °F 35.6 °F 78% 30.04 in 10.0 mi Calm Calm - N/A   Clear
12:35 AM 41.4 °F 35.6 °F 80% 30.04 in 10.0 mi Calm Calm - N/A   Clear
12:55 AM 40.1 °F 36.1 °F 86% 30.04 in 10.0 mi Calm Calm - N/A   Clear
1:15 AM 39.4 °F 36.1 °F 88% 30.04 in 10.0 mi Calm Calm - N/A   Clear
1:35 AM 39.2 °F 35.8 °F 88% 30.04 in 10.0 mi Calm Calm - N/A   Clear
1:55 AM 38.3 °F 35.1 °F 88% 30.04 in 10.0 mi Calm Calm - N/A   Clear
2:15 AM 37.8 °F 36.3 °F 95% 30.04 in 10.0 mi Calm Calm - N/A   Clear
2:35 AM 37.8 °F 35.8 °F 93% 30.04 in 10.0 mi Calm Calm - N/A   Clear
2:55 AM 37.2 °F 36.0 °F 95% 30.03 in 10.0 mi Calm Calm - N/A   Clear
3:15 AM 36.0 °F 34.3 °F 94% 30.04 in 10.0 mi Calm Calm - N/A   Clear
3:35 AM 36.3 °F 34.2 °F 92% 30.04 in 10.0 mi Calm Calm - N/A   Clear
3:55 AM 36.0 °F 34.9 °F 96% 30.05 in 10.0 mi Calm Calm - N/A   Clear
4:15 AM 35.6 °F 34.9 °F 97% 30.06 in 10.0 mi Calm Calm - N/A   Clear
4:35 AM 35.2 °F 34.7 °F 98% 30.06 in 10.0 mi Calm Calm - N/A   Clear
4:55 AM 34.3 °F 34.3 °F 100% 30.07 in 10.0 mi Calm Calm - N/A   Clear
5:15 AM 34.5 °F 33.3 °F 95% 30.07 in 10.0 mi Calm Calm - N/A   Clear
5:35 AM 34.0 °F 32.9 °F 96% 30.07 in 10.0 mi Calm Calm - N/A   Clear
5:55 AM 33.4 °F 32.9 °F 98% 30.08 in 10.0 mi Calm Calm - N/A   Clear
6:15 AM 33.4 °F 32.9 °F 98% 30.09 in 10.0 mi Calm Calm - N/A   Clear
6:35 AM 33.1 °F 32.9 °F 99% 30.09 in 10.0 mi Calm Calm - N/A   Clear
6:55 AM 32.9 °F 32.9 °F 100% 30.10 in 10.0 mi Calm Calm - N/A   Clear
7:15 AM 32.7 °F 32.7 °F 100% 30.11 in 10.0 mi Calm Calm - N/A   Clear
7:35 AM 33.6 °F 33.6 °F 100% 30.12 in 10.0 mi Calm Calm - N/A   Clear
7:55 AM 34.9 °F 34.0 °F 97% 30.13 in 10.0 mi Calm Calm - N/A   Clear
8:15 AM 37.2 °F 34.9 °F 91% 30.13 in 10.0 mi Calm Calm - N/A   Clear
8:35 AM 40.1 °F 36.7 °F 88% 30.13 in 10.0 mi Calm Calm - N/A   Clear
8:55 AM 43.5 °F 36.1 °F 75% 30.13 in 10.0 mi Calm Calm - N/A   Clear
9:15 AM 46.0 °F 37.0 °F 71% 30.13 in 10.0 mi Calm Calm - N/A   Clear
9:35 AM 51.3 °F 36.9 °F 58% 30.13 in 10.0 mi Calm Calm - N/A   Clear
9:55 AM 54.9 °F 38.1 °F 53% 30.13 in 10.0 mi NE 3.5 mph - N/A   Clear
10:15 AM 59.0 °F 35.1 °F 41% 30.13 in 10.0 mi Calm Calm - N/A   Clear
10:35 AM 61.3 °F 29.3 °F 30% 30.13 in 10.0 mi East 5.8 mph - N/A   Clear
10:55 AM 62.4 °F 28.6 °F 28% 30.12 in 10.0 mi Calm Calm - N/A   Clear
11:15 AM 63.5 °F 28.4 °F 27% 30.12 in 10.0 mi East 3.5 mph - N/A   Clear
11:35 AM 64.6 °F 26.4 °F 24% 30.11 in 10.0 mi SE 3.5 mph - N/A   Clear
11:55 AM 66.0 °F 27.1 °F 23% 30.10 in 10.0 mi South 4.6 mph - N/A   Clear
12:15 PM 66.7 °F 27.9 °F 23% 30.09 in 10.0 mi SSE 6.9 mph - N/A   Clear
12:35 PM 67.6 °F 29.7 °F 24% 30.08 in 10.0 mi SSE 8.1 mph - N/A   Clear
12:55 PM 68.0 °F 27.7 °F 22% 30.06 in 10.0 mi SE 10.4 mph 16.1 mph N/A   Clear
1:15 PM 68.4 °F 28.0 °F 22% 30.05 in 10.0 mi SSE 8.1 mph - N/A   Clear
1:35 PM 69.3 °F 29.7 °F 23% 30.04 in 10.0 mi South 5.8 mph - N/A   Clear
1:55 PM 69.6 °F 28.4 °F 22% 30.04 in 10.0 mi SSE 5.8 mph - N/A   Clear
2:15 PM 71.4 °F 29.5 °F 21% 30.02 in 10.0 mi SE 9.2 mph - N/A   Clear
2:35 PM 71.4 °F 27.3 °F 19% 30.02 in 10.0 mi SSE 6.9 mph - N/A   Clear
2:55 PM 71.4 °F 26.6 °F 19% 30.01 in 10.0 mi SSE 10.4 mph 16.1 mph N/A   Clear
3:15 PM 72.0 °F 28.2 °F 20% 30.01 in 10.0 mi SSW 9.2 mph - N/A   Clear
3:35 PM 72.3 °F 27.3 °F 19% 30.00 in 10.0 mi SSE 8.1 mph - N/A   Clear
3:55 PM 71.6 °F 27.7 °F 20% 29.99 in 10.0 mi SSE 8.1 mph 18.4 mph N/A   Clear
4:15 PM 72.1 °F 28.4 °F 20% 29.99 in 10.0 mi SSE 8.1 mph 18.4 mph N/A   Clear
4:35 PM 71.8 °F 28.2 °F 20% 29.98 in 10.0 mi SSE 9.2 mph 18.4 mph N/A   Clear
4:55 PM 72.0 °F 27.9 °F 19% 29.98 in 10.0 mi SSE 11.5 mph 18.4 mph N/A   Clear
5:15 PM 72.5 °F 29.3 °F 20% 29.98 in 10.0 mi South 4.6 mph - N/A   Clear
5:35 PM 72.5 °F 30.0 °F 21% 29.98 in 10.0 mi South 11.5 mph 19.6 mph N/A   Clear
5:55 PM 71.8 °F 29.3 °F 21% 29.98 in 10.0 mi SSE 9.2 mph 17.3 mph N/A   Clear
6:15 PM 71.6 °F 29.5 °F 21% 29.98 in 10.0 mi South 6.9 mph 16.1 mph N/A   Clear
6:35 PM 70.7 °F 28.9 °F 21% 29.97 in 10.0 mi SSE 8.1 mph 16.1 mph N/A   Clear
6:55 PM 70.5 °F 29.3 °F 22% 29.97 in 10.0 mi South 5.8 mph 16.1 mph N/A   Clear
7:15 PM 69.4 °F 29.8 °F 23% 29.97 in 10.0 mi SSW 8.1 mph - N/A   Clear
7:35 PM 68.7 °F 29.8 °F 24% 29.97 in 10.0 mi SSW 9.2 mph - N/A   Clear
7:55 PM 67.5 °F 30.0 °F 25% 29.97 in 10.0 mi SSW 8.1 mph - N/A   Clear
8:15 PM 66.0 °F 31.3 °F 27% 29.98 in 10.0 mi Calm Calm - N/A   Clear
8:35 PM 64.9 °F 32.0 °F 29% 29.97 in 10.0 mi SE 3.5 mph - N/A   Clear
8:55 PM 62.4 °F 33.6 °F 34% 29.98 in 10.0 mi Calm Calm - N/A   Clear
9:15 PM 57.9 °F 37.8 °F 47% 29.99 in 10.0 mi Calm Calm - N/A   Clear
9:35 PM 55.4 °F 39.2 °F 54% 30.02 in 10.0 mi Calm Calm - N/A   Clear
9:55 PM 54.3 °F 40.3 °F 59% 30.02 in 10.0 mi Calm Calm - N/A   Scattered Clouds
10:15 PM 53.6 °F 41.2 °F 63% 30.02 in 10.0 mi Calm Calm - N/A   Mostly Cloudy
10:35 PM 51.6 °F 44.4 °F 76% 30.01 in 10.0 mi Calm Calm - N/A   Mostly Cloudy
10:55 PM 51.4 °F 42.8 °F 72% 30.00 in 10.0 mi Calm Calm - N/A   Scattered Clouds
11:15 PM 50.2 °F 43.7 °F 78% 29.99 in 10.0 mi Calm Calm - N/A   Clear
11:35 PM 49.8 °F 42.8 °F 77% 29.98 in 10.0 mi Calm Calm - N/A   Clear
11:55 PM 48.0 °F 42.3 °F 80% 29.98 in 10.0 mi Calm Calm - N/A   Clear